This is the latest recevied weather packets stored in our database for station/object KC1TEM-13. If no packets are shown the sender has not sent any weather packets the latest 10 day(s).
| Time | Temp. | Humidity | Pressure | Rain* | Wind** | Luminosity | Snow |
|---|---|---|---|---|---|---|---|
| 1777501838 | 7.22° C | 89% | 1014.6 hPa | 0 mm | - | 23 W/m² | - |
| 1777501535 | 7.22° C | 88% | 1014.4 hPa | 0 mm | - | 29 W/m² | - |
| 1777501232 | 7.22° C | 88% | 1014.3 hPa | 0 mm | - | 38 W/m² | - |
| 1777500930 | 7.78° C | 87% | 1014.5 hPa | 0 mm | - | 39 W/m² | - |
| 1777500627 | 7.78° C | 86% | 1014.6 hPa | 0 mm | - | 42 W/m² | - |
| 1777500324 | 7.78° C | 86% | 1014.6 hPa | 0 mm | - | 50 W/m² | - |
| 1777500020 | 7.78° C | 86% | 1014.6 hPa | 0 mm | - | 43 W/m² | - |
| 1777499716 | 7.78° C | 85% | 1014.7 hPa | 0 mm | - | 48 W/m² | - |
| 1777499413 | 7.78° C | 84% | 1014.6 hPa | 0 mm | - | 57 W/m² | - |
| 1777499112 | 8.33° C | 83% | 1014.7 hPa | 0 mm | - | 56 W/m² | - |
| 1777498808 | 8.33° C | 82% | 1014.6 hPa | 0 mm | - | 59 W/m² | - |
| 1777498504 | 8.89° C | 81% | 1014.7 hPa | 0 mm | - | 60 W/m² | - |
| 1777498200 | 8.89° C | 81% | 1014.5 hPa | 0 mm | - | 70 W/m² | - |
| 1777497899 | 8.89° C | 81% | 1014.4 hPa | 0 mm | - | 82 W/m² | - |
| 1777497594 | 8.89° C | 81% | 1014.5 hPa | 0 mm | - | 91 W/m² | - |
| 1777497291 | 8.89° C | 81% | 1014.7 hPa | 0 mm | - | 112 W/m² | - |
| 1777496987 | 8.89° C | 80% | 1014.8 hPa | 0 mm | - | 115 W/m² | - |
| 1777496684 | 8.89° C | 79% | 1014.8 hPa | 0 mm | - | 99 W/m² | - |
| 1777496380 | 9.44° C | 78% | 1014.7 hPa | 0 mm | - | 115 W/m² | - |
| 1777496077 | 9.44° C | 79% | 1014.8 hPa | 0 mm | - | 154 W/m² | - |
| 1777495773 | 9.44° C | 79% | 1014.8 hPa | 0 mm | - | 176 W/m² | - |
| 1777495470 | 8.89° C | 80% | 1014.7 hPa | 0 mm | - | 155 W/m² | - |
| 1777495166 | 8.89° C | 78% | 1015 hPa | 0 mm | - | 148 W/m² | - |
| 1777494863 | 9.44° C | 78% | 1015.2 hPa | 0 mm | - | 142 W/m² | - |
| 1777494560 | 9.44° C | 78% | 1015.1 hPa | 0 mm | - | 138 W/m² | - |
* Rain latest hour (hover to see other rain measurements)
** Current wind speed in m/s (hover to see current wind gust speed)